Location: Newark
(49.2191°N, 12.6671°E)
Time: 14:59:08
(UTC+00:00)

Transit 4A - Pass Details

Date: 01 February 2020
Orbit: 872 x 973 km, 66.8° (Epoch: 22 February)

Event Time Altitude Azimuth Distance (km) Brightness Sun altitude
Rises 12:35:50 0° 323° (NW) 3,473 10.6 21.7°
Reaches altitude 10° 12:38:19 10° 323° (NW) 2,530 9.9 21.5°
Maximum altitude 12:44:09 83° 238° (WSW) 888 8.3 21.2°
Drops below altitude 10° 12:50:02 10° 150° (SSE) 2,539 10.8 20.9°
Sets 12:52:31 0° 149° (SSE) 3,486 11.4 20.7°
